Location: ??
(35.4032°N, 139.3073°E)
Time: 13:07:15
(UTC+00:00)

ACS3 Solar Sail - Visible Passes

Search period start: 21 June 2024 00:00
Search period end: 01 July 2024 00:00
Orbit: 992 x 1024 km, 97.4° (Epoch: 20 June)

Date Brightness Start Highest point End Pass type
(mag) Time Alt. Az. Time Alt. Az. Time Alt. Az.
21 Jun 5.1 11:54:09 30° SE 11:57:03 55° ENE 12:03:06 10° N visible
21 Jun 6.6 13:39:30 17° WSW 13:41:26 20° W 13:45:49 10° NW visible
22 Jun 6.6 10:44:48 10° E 10:48:03 15° ENE 10:51:17 10° NNE visible
22 Jun 4.9 12:28:56 40° S 12:31:23 77° WSW 12:37:37 10° NNW visible
23 Jun 5.9 11:18:24 17° ESE 11:22:01 29° ENE 11:27:13 10° NNE visible
23 Jun 5.8 13:03:44 30° SW 13:05:54 38° W 13:11:40 10° NNW visible
24 Jun 5.0 11:53:11 30° SE 11:56:11 57° ENE 12:02:15 10° N visible
24 Jun 6.7 13:38:32 16° WSW 13:40:36 19° W 13:44:51 10° NW visible
25 Jun 6.6 10:43:47 10° E 10:47:10 15° ENE 10:50:32 10° NNE visible
25 Jun 4.9 12:27:59 38° S 12:30:32 75° W 12:36:46 10° NNW visible
26 Jun 5.8 11:17:26 17° ESE 11:21:09 30° ENE 11:26:25 10° N visible
26 Jun 5.9 13:02:47 28° SW 13:05:03 37° W 13:10:46 10° NNW visible
27 Jun 5.0 11:52:14 30° SE 11:55:19 59° ENE 12:01:24 10° N visible
27 Jun 6.7 13:37:35 15° WSW 13:39:46 18° W 13:43:53 10° NW visible
28 Jun 6.6 10:42:46 10° E 10:46:17 16° ENE 10:49:48 10° NNE visible
28 Jun 4.9 12:27:03 37° S 12:29:40 72° W 12:35:53 10° NNW visible
29 Jun 5.8 11:16:30 17° ESE 11:20:16 31° ENE 11:25:35 10° N visible
29 Jun 5.9 13:01:50 27° SW 13:04:12 36° W 13:09:52 10° NNW visible
30 Jun 4.9 11:51:18 29° SE 11:54:26 61° ENE 12:00:33 10° N visible
30 Jun 6.8 13:36:39 15° WSW 13:38:55 18° W 13:42:54 10° NW visible
